Lapse_Rate
6.9 7.1 7.2 7.3 7.2 7.1 6.7 6.9 7.0 6.7 6.7 6.7 6.6 6.7 6.8 6.7 6.6 6.6 6.5 6.6 6.4 6.0
7.0 7.3 7.5 7.5 7.2 7.0 6.8 7.2 7.0 6.7 6.8 6.9 6.9 6.9 7.0 7.0 6.7 6.7 6.5 6.7 6.5 6.2
7.2 7.3 7.5 7.5 7.3 7.0 7.1 7.3 7.3 7.2 7.2 7.3 7.3 7.2 7.2 7.0 6.9 6.7 6.8 6.7 6.5 6.3
7.3 7.2 7.7 7.6 7.5 7.4 7.3 7.1 7.5 7.5 7.2 7.1 7.2 7.2 7.3 7.2 7.3 6.9 6.7 6.5 6.3 6.1
7.4 7.1 7.7 7.7 7.8 7.6 7.6 7.5 7.5 7.3 7.3 7.3 7.4 7.4 7.6 7.3 7.5 7.4 6.9 6.6 6.4 6.1
7.6 7.5 7.8 7.9 7.8 7.8 7.7 7.6 7.7 7.6 7.5 7.5 7.5 7.5 7.4 7.3 7.3 7.2 6.8 6.6 6.3 6.0
8.0 8.0 8.1 8.0 8.0 8.0 7.7 7.8 7.9 7.8 7.8 7.7 7.7 7.7 7.6 7.5 7.4 7.2 7.1 6.8 6.3 5.7
8.3 8.4 8.4 8.4 8.2 8.0 7.8 7.8 7.9 7.9 7.9 7.9 7.9 8.1 8.0 7.6 7.4 7.3 7.2 6.9 6.5 5.8
8.3 8.4 8.6 8.5 8.3 8.1 8.1 8.0 8.1 8.2 8.1 8.1 8.0 8.2 8.0 7.8 7.4 7.2 7.1 6.9 6.5 6.0
8.4 8.5 8.5 8.7 8.5 8.3 8.2 8.1 8.1 8.3 8.1 8.2 8.1 8.0 7.8 7.6 7.6 7.5 7.4 7.2 6.9 6.4
8.6 8.7 8.5 8.5 8.8 8.6 8.3 8.2 8.2 8.1 8.1 8.0 7.8 7.7 7.8 7.8 7.7 7.4 7.3 7.1 7.1 6.7
8.6 8.7 8.7 8.6 8.6 8.7 8.5 8.3 8.2 8.2 8.0 7.8 7.9 8.1 8.0 7.7 7.6 7.5 7.2 7.2 7.0 6.9
8.7 8.5 8.6 8.7 8.6 8.6 8.6 8.5 8.3 8.2 7.9 8.0 8.1 8.1 7.9 7.9 7.9 7.5 7.1 7.2 7.0 6.7
9.1 8.8 8.5 8.4 8.5 8.5 8.5 8.5 8.2 7.9 8.0 7.8 7.9 8.0 7.8 8.0 7.8 7.3 7.1 6.8 6.7 6.2
Wind_Speed
14 9 8 8 5 7 9 9 8 10 9 7 9 8 7 4 4 5 4 5 3 2
13 12 11 8 8 7 7 6 10 11 10 9 7 7 7 4 5 4 4 4 3 3
16 14 11 9 10 10 9 8 9 11 11 10 8 8 8 6 5 7 5 4 5 5
15 14 13 12 11 11 12 11 11 13 12 11 10 9 9 8 7 7 6 5 6 7
16 15 15 16 11 11 12 12 13 13 13 13 12 11 11 11 9 10 8 7 6 7
17 16 18 17 16 11 13 11 12 13 14 14 13 12 11 12 10 10 8 7 7 7
19 20 18 17 16 15 13 11 12 13 13 13 13 13 13 13 11 8 7 7 8 7
20 19 18 16 16 14 14 12 12 11 11 12 12 11 13 13 12 10 8 8 7 7
19 18 18 17 15 14 14 13 11 12 13 12 10 15 17 16 11 11 10 8 6 6
19 19 19 17 15 15 16 13 12 12 12 13 14 16 18 16 8 9 8 8 7 6
19 19 18 17 17 16 14 15 12 12 14 13 12 16 15 18 9 8 9 11 9 7
20 19 18 19 17 15 14 14 13 13 14 14 11 17 17 14 8 6 7 7 7 7
20 19 19 18 17 14 14 15 12 12 12 14 12 14 17 14 7 7 5 5 6 9
19 20 18 16 13 15 14 11 11 11 8 9 10 10 16 13 7 7 6 5 4 4
Wind_Direction
191 196 197 190 182 193 193 191 178 178 178 174 172 173 174 172 177 170 196 201 160 189
188 197 197 187 184 190 188 180 176 175 177 181 176 169 170 173 181 178 207 216 190 216
196 197 191 183 189 190 193 190 176 179 183 184 175 172 169 177 184 191 202 200 199 224
194 199 196 203 197 190 190 193 181 187 183 185 182 181 180 188 191 196 210 207 199 229
190 190 200 208 202 190 193 192 189 185 187 188 190 186 189 196 199 200 203 209 197 221
192 191 202 208 205 193 202 188 186 186 188 190 189 192 197 200 199 200 203 191 202 213
193 197 202 206 204 201 199 192 190 189 188 189 191 195 199 202 204 190 194 189 201 204
198 199 201 203 203 202 202 198 190 186 189 187 192 199 199 203 203 190 190 196 201 204
195 196 200 201 199 196 197 199 178 186 187 183 196 203 198 200 198 193 194 203 202 214
193 196 198 197 195 196 198 188 190 182 183 193 203 199 198 195 180 177 191 195 189 208
196 197 195 194 198 195 193 197 188 187 191 196 204 194 185 181 179 192 201 201 197 202
198 194 192 198 194 191 191 194 193 196 189 193 197 191 175 164 175 183 204 195 195 200
192 193 194 194 192 188 191 196 191 189 188 189 193 176 164 165 166 168 177 186 200 201
190 191 193 186 185 189 188 175 177 174 167 184 176 167 159 152 160 190 189 200 206 212